Theta_e
319 320 332 335 340 338 342 341 337 341 345 342 344 344 340 344 344 342 343 339 339 330 322 320 321 321 323 324 325 327 326 326 326 326 326 324 322 322 322 321 327 328 321 332 332 324 325 325 328
318 329 333 335 339 341 341 336 339 345 340 341 340 339 340 344 345 343 344 344 344 328 320 321 321 322 324 325 326 327 325 325 325 326 325 323 322 323 323 323 320 319 320 325 330 326 325 328 333
318 326 334 334 338 341 340 339 339 344 342 345 340 339 341 346 345 343 343 342 343 326 320 321 321 323 325 325 327 326 325 325 325 326 324 324 323 322 322 325 322 320 320 321 323 326 326 327 330
326 328 332 331 336 336 339 337 343 341 341 341 339 339 342 343 343 344 346 338 333 323 320 321 321 324 326 326 327 326 325 325 326 326 326 326 325 324 320 322 325 322 321 321 322 323 326 330 330
326 326 333 338 339 338 336 339 340 343 341 340 339 340 340 345 344 342 336 330 325 321 321 321 322 324 326 326 327 326 325 325 326 328 331 328 323 324 326 323 322 326 323 323 324 326 330 333 335
326 326 328 335 336 338 338 338 343 342 342 341 339 340 340 341 342 341 336 330 325 320 321 320 323 325 326 326 327 325 325 325 328 332 333 328 324 326 327 327 325 321 327 327 328 329 329 333 337
323 319 325 335 340 335 339 341 342 343 343 343 339 339 341 342 341 339 336 326 323 319 321 320 322 325 326 326 327 325 324 325 329 334 334 329 330 329 328 327 327 324 322 327 329 329 331 333 336
329 319 325 333 335 337 336 339 343 344 344 342 340 339 340 341 339 336 329 324 320 319 321 321 321 325 326 326 327 325 324 325 334 336 334 331 331 331 330 326 327 326 321 322 324 326 330 333 334
324 317 320 324 335 338 336 334 344 343 344 344 342 343 339 339 338 336 329 324 322 320 321 321 320 324 326 326 327 326 324 325 335 337 336 335 334 332 331 329 330 330 328 324 322 324 327 326 329
320 316 319 320 333 336 336 335 341 345 345 345 344 342 339 339 338 336 336 336 336 328 320 321 320 321 325 326 326 326 324 326 335 335 335 335 338 336 334 332 332 332 332 330 328 328 329 332 335
319 318 318 322 325 328 325 332 337 344 343 344 343 339 339 339 338 337 336 335 336 328 320 320 321 320 321 323 324 325 325 324 336 336 335 334 335 338 337 334 333 333 331 332 332 333 330 332 332
320 320 320 321 323 323 322 325 336 343 341 344 344 339 339 338 338 338 336 336 336 333 334 322 320 321 320 321 322 325 324 325 332 337 336 336 335 337 335 338 337 335 335 333 333 331 332 332 331
318 319 322 322 322 323 327 334 335 340 343 340 340 338 339 339 339 338 336 335 336 335 334 332 323 324 321 326 327 331 326 327 330 334 337 337 335 336 338 336 336 336 335 333 333 332 331 330 330
320 320 320 322 323 322 334 335 337 342 342 340 338 338 338 338 338 338 338 337 336 335 335 334 333 333 329 327 332 332 332 333 335 338 338 336 337 337 337 337 337 335 334 335 334 333 332 332 332
321 319 318 321 324 330 338 337 338 342 343 340 339 339 339 339 339 338 338 338 335 335 335 334 334 333 333 332 331 332 332 333 335 335 338 339 337 339 337 337 336 336 335 334 333 334 333 332 331
320 318 320 320 322 335 335 338 335 344 344 343 341 340 340 340 339 338 338 337 335 334 334 333 334 333 333 333 333 332 332 332 335 335 336 339 339 340 340 339 336 336 336 337 334 334 333 332 331
315 319 321 321 322 325 331 336 334 344 344 343 343 342 340 340 340 338 337 338 336 334 334 333 334 333 333 333 333 333 333 332 332 334 334 336 338 340 341 340 335 335 337 337 335 335 333 335 333
318 320 320 320 321 320 330 333 333 341 343 342 342 341 340 340 340 339 336 338 337 334 333 333 333 333 333 333 333 333 333 333 332 333 334 335 336 339 341 341 338 334 338 339 337 336 336 335 335
319 319 319 318 319 321 319 321 333 334 337 339 339 339 339 339 337 339 337 334 336 334 333 333 333 333 333 332 333 333 334 333 333 333 332 334 335 338 340 341 341 339 338 336 337 336 337 337 336
318 318 317 317 318 320 320 324 330 333 335 337 337 338 339 339 339 337 337 335 334 335 333 333 332 333 332 333 332 333 332 332 331 332 330 330 333 337 340 340 342 341 341 337 336 339 336 336 337
317 317 317 318 319 319 322 324 339 336 335 335 336 337 337 337 338 337 336 335 334 334 333 333 333 332 332 332 333 333 334 334 332 330 331 330 335 337 339 340 341 342 342 340 336 336 336 335 336
317 316 318 318 319 319 319 318 326 337 337 336 337 337 337 337 336 336 336 335 335 335 333 333 333 332 332 332 332 332 332 332 330 328 324 326 334 336 338 340 341 342 339 340 338 338 336 331 333
318 319 319 319 317 318 318 317 317 332 339 337 337 337 337 337 337 337 336 336 336 334 335 334 333 332 332 332 332 332 332 332 333 328 325 323 331 336 337 339 340 339 332 338 337 336 338 334 331
320 320 317 314 314 318 319 318 317 321 336 328 333 338 337 337 337 336 337 336 336 334 334 334 333 333 332 332 332 332 332 332 336 331 332 330 331 334 338 339 339 339 336 334 334 338 337 336 334
317 316 317 320 318 320 319 320 330 332 343 344 339 343 341 339 338 337 337 336 336 335 335 335 335 334 332 332 332 332 333 333 336 334 333 335 334 338 341 341 339 337 337 335 337 339 338 336 333
319 317 317 321 321 321 320 326 334 337 345 346 341 340 344 344 342 340 339 338 337 337 336 336 336 337 336 335 333 335 335 336 339 342 340 338 339 344 341 340 340 337 336 336 335 336 335 334 332
320 318 317 318 318 320 321 332 331 337 342 340 335 334 333 335 335 333 332 332 333 340 340 339 339 339 340 341 337 338 339 340 342 340 336 344 342 340 340 339 340 338 334 335 336 336 333 333 331
319 317 321 317 322 324 324 333 333 337 339 337 334 333 334 332 331 332 331 333 335 338 337 338 337 337 344 344 343 342 343 341 335 332 328 328 336 334 337 334 334 334 336 336 334 332 332 333 331
319 319 316 317 319 323 329 333 337 336 335 340 338 336 335 331 330 334 337 341 343 342 342 347 350 348 347 347 348 346 342 336 334 329 332 331 331 337 336 334 335 333 332 329 331 330 328 325 325
320 320 316 318 321 320 330 336 335 333 334 341 340 339 335 336 340 342 343 343 343 342 342 342 344 346 345 343 344 341 339 337 337 332 334 334 335 334 334 334 327 327 326 324 324 322 323 322 320
Wind_Speed
2 2 5 3 4 5 4 3 2 2 3 2 16 4 6 4 0 3 22 22 21 21 19 18 16 14 14 14 13 12 10 10 10 10 9 9 9 8 9 8 8 8 11 12 10 11 12 11 11
1 2 3 3 4 4 5 2 3 2 13 22 13 9 4 3 4 15 26 21 23 20 20 19 16 15 15 15 13 11 10 10 10 10 10 9 9 8 9 9 8 8 12 12 11 12 12 12 11
1 1 0 3 3 3 4 1 2 8 18 4 7 8 3 3 11 28 26 20 26 23 21 19 17 17 17 15 12 10 10 10 10 10 11 11 10 10 9 9 9 10 11 12 12 13 12 11 10
2 2 2 3 1 4 3 2 9 7 6 3 14 6 7 5 23 20 23 23 25 24 22 19 17 18 16 13 11 10 11 10 11 12 13 12 12 12 11 10 9 11 12 12 12 13 11 10 10
3 0 3 2 4 4 5 6 14 2 1 6 5 4 5 16 15 19 22 24 23 24 23 20 18 17 15 13 11 10 10 10 11 13 15 14 13 13 13 13 10 10 11 13 13 12 11 11 10
1 2 3 2 3 3 5 5 11 4 7 8 10 7 4 13 19 19 18 20 22 22 22 20 18 16 15 13 11 10 10 10 12 15 15 16 15 15 14 12 12 11 10 11 11 11 11 12 10
4 4 3 2 3 5 4 11 13 7 10 3 20 4 7 24 21 15 15 20 21 22 21 19 17 17 15 13 11 11 10 10 12 14 16 18 20 19 16 13 12 13 10 11 11 10 10 11 10
2 3 1 2 1 4 4 4 11 8 3 17 18 7 8 29 22 18 19 20 19 19 19 18 17 16 15 13 12 11 10 10 13 14 15 17 18 17 16 14 14 13 14 13 13 12 12 11 9
2 4 1 4 2 2 4 4 13 5 15 9 14 10 10 32 27 24 24 23 21 20 20 18 17 16 15 14 13 12 11 11 14 13 12 12 13 14 15 17 16 14 13 12 13 14 14 10 8
4 4 8 5 4 1 2 3 11 6 14 4 16 5 28 34 30 27 26 24 21 21 22 20 17 16 16 15 14 13 12 12 14 12 11 8 9 10 11 13 14 14 13 13 13 14 11 5 2
5 5 4 4 9 16 19 10 12 11 6 12 22 26 39 34 31 26 25 21 18 17 20 21 19 18 16 16 15 14 12 13 15 13 11 8 7 5 6 10 10 10 10 9 9 7 10 5 1
2 7 6 6 13 12 11 16 13 21 9 18 20 31 39 36 34 30 27 26 24 20 15 19 21 19 18 17 15 12 14 14 16 15 13 11 9 6 6 7 8 9 8 8 7 5 8 6 3
4 5 7 20 24 25 11 19 10 15 9 15 25 37 36 37 34 31 25 25 25 23 20 17 19 18 20 18 16 13 13 13 14 15 12 11 10 9 8 7 6 8 8 8 10 5 6 6 3
4 5 16 19 24 7 6 7 14 13 20 24 34 39 38 37 37 34 32 30 31 25 22 21 20 18 18 22 18 14 14 13 14 15 11 13 11 9 8 6 8 9 8 9 11 6 4 7 6
4 5 8 5 4 3 22 4 9 25 27 30 34 39 40 36 36 35 32 32 31 29 25 25 23 22 21 21 19 19 16 16 16 15 14 12 13 10 9 8 10 11 11 9 9 9 7 8 9
3 4 4 4 1 5 4 7 6 19 31 31 34 35 38 39 35 32 32 32 31 30 31 27 27 26 24 24 22 21 20 19 19 18 16 16 13 11 11 13 11 11 13 13 10 11 10 7 12
6 2 3 8 4 3 3 4 4 22 23 24 29 34 39 40 38 34 34 33 35 33 33 32 31 31 28 26 26 25 23 24 20 21 19 17 17 14 12 13 13 14 14 14 13 13 14 11 14
4 2 3 5 4 5 6 8 7 30 29 27 29 34 38 42 46 40 36 34 35 34 32 34 34 34 31 29 28 28 28 28 25 23 22 19 18 17 17 14 13 15 15 15 18 17 17 17 14
2 1 4 6 4 3 6 5 11 25 21 21 25 33 35 45 42 41 34 35 37 40 39 38 39 38 37 36 34 34 34 32 31 28 26 24 22 21 20 18 16 16 16 19 20 20 20 22 18
2 2 6 8 5 2 8 8 7 17 31 36 33 31 37 40 39 42 41 34 40 43 44 44 43 43 41 40 37 37 34 34 35 34 33 31 28 25 23 20 21 16 18 21 20 20 20 21 21
3 4 6 8 6 4 3 7 5 4 6 19 27 34 34 40 46 44 43 40 38 44 48 50 47 47 45 42 42 42 40 39 38 39 38 34 30 27 26 24 24 23 23 21 25 23 26 23 20
5 9 9 6 3 4 4 4 6 5 17 12 21 29 36 40 40 42 45 42 43 43 47 49 49 51 49 47 46 46 44 41 38 36 37 36 32 30 29 28 26 24 25 27 23 27 23 22 19
11 4 7 5 6 3 6 4 6 2 12 19 26 30 42 42 39 39 41 44 43 44 45 49 51 52 51 51 50 48 46 42 37 35 34 34 33 31 34 35 30 25 31 30 29 26 28 30 27
1 5 6 4 3 3 3 4 5 7 10 11 23 38 37 29 23 24 27 30 36 37 40 48 52 57 57 54 54 52 48 44 38 38 35 33 33 32 32 32 35 31 29 32 34 31 34 26 28
6 6 4 4 4 4 3 5 2 6 8 10 12 21 7 6 9 15 19 23 26 30 34 41 47 51 55 55 52 52 48 43 43 40 37 31 31 32 33 30 29 29 24 25 27 26 22 25 18
2 7 6 4 3 3 2 4 5 7 12 22 22 27 26 27 19 10 6 10 17 23 26 30 35 37 38 40 43 41 41 38 30 25 35 29 29 26 22 23 25 22 19 17 24 24 20 20 18
4 3 4 8 3 2 2 4 2 9 11 14 17 25 21 20 17 14 12 16 13 4 10 19 25 27 31 24 29 30 32 26 10 9 24 27 25 19 21 15 13 12 14 25 20 14 12 9 9
6 7 4 3 4 3 3 3 2 7 8 8 7 11 14 15 14 14 15 13 11 11 12 11 12 11 11 14 20 23 21 10 2 28 25 22 8 21 13 10 9 12 17 13 9 7 6 9 10
3 2 7 5 5 5 3 1 5 4 6 8 13 12 12 15 19 18 17 16 15 16 17 17 12 4 6 10 20 22 11 11 34 25 24 15 12 12 8 8 8 8 7 7 10 11 11 8 7
5 3 5 5 4 2 4 2 3 5 6 7 11 17 20 22 22 19 19 18 19 21 23 23 18 17 13 11 11 10 14 17 23 21 14 6 6 6 10 14 14 14 15 13 9 7 9 10 6
Wind_Direction
6 355 352 3 48 54 325 331 220 203 56 121 155 177 151 54 127 195 148 162 162 162 158 154 153 149 143 141 138 131 118 108 97 94 88 80 78 81 87 97 114 117 138 135 133 138 133 132 130
351 36 344 46 78 46 302 332 310 191 132 113 110 105 46 92 116 139 153 160 170 162 159 156 155 151 149 149 143 130 113 103 99 93 86 78 77 81 84 89 95 109 132 141 132 135 133 134 136
165 181 127 102 110 146 233 20 80 146 143 158 121 95 100 131 142 147 160 156 168 162 159 159 157 156 157 150 140 128 112 102 99 90 81 76 71 74 83 88 92 102 117 130 131 131 130 130 131
168 195 107 79 335 247 245 72 138 136 107 96 109 67 82 347 141 148 158 158 166 159 161 163 161 160 155 147 140 127 114 109 98 92 89 79 75 76 79 88 91 101 113 120 127 130 126 128 132
189 51 48 25 265 266 271 160 170 224 102 141 111 116 89 149 146 149 155 161 166 163 164 165 162 160 155 146 141 131 120 113 112 109 94 84 82 82 81 81 92 99 108 120 125 126 125 126 134
146 97 56 280 265 265 275 193 135 149 139 162 122 106 115 177 162 154 158 165 172 169 167 168 163 161 158 152 152 138 129 128 126 112 93 84 87 89 85 86 87 99 114 120 127 130 131 136 135
130 88 213 246 293 318 295 148 136 167 155 180 141 80 141 160 157 151 163 170 173 171 172 171 167 167 163 163 159 149 143 141 130 119 100 91 90 88 89 96 101 99 112 126 132 130 124 138 139
202 91 349 256 265 272 274 147 152 147 227 154 153 151 174 165 156 149 155 167 172 176 181 177 175 173 172 171 170 159 156 150 138 129 113 100 101 94 85 98 114 113 116 129 135 135 131 140 140
180 60 282 245 228 328 283 118 174 170 159 166 190 197 187 160 163 158 158 162 171 182 187 186 184 179 180 182 179 171 168 157 153 146 130 128 113 110 98 103 105 107 108 118 130 133 134 143 139
128 140 215 221 194 275 344 349 168 133 183 233 196 191 160 167 170 169 170 172 179 188 189 193 192 190 189 191 188 183 180 168 163 147 150 135 134 130 123 121 116 119 115 110 121 133 138 143 129
173 203 228 292 282 273 275 224 175 148 240 217 176 158 167 173 179 181 182 182 175 170 187 195 198 199 199 198 192 190 189 184 175 167 157 164 163 163 154 140 146 143 143 145 158 159 172 175 351
274 259 250 241 286 267 239 242 194 168 242 210 192 173 175 183 185 191 195 194 190 186 181 192 199 204 206 204 198 192 200 195 191 179 180 188 200 180 153 162 181 176 174 186 188 205 192 191 234
197 259 290 302 306 301 257 188 148 189 193 169 170 170 180 189 194 198 204 204 200 200 194 190 196 205 210 202 198 203 202 204 195 195 194 192 187 192 197 194 201 200 206 205 205 208 206 213 172
224 274 296 305 309 279 120 118 150 195 174 166 172 177 185 194 199 204 210 213 210 210 209 203 205 207 211 207 211 216 204 202 202 203 199 202 203 206 213 228 214 210 225 227 220 218 185 204 231
280 319 321 289 350 65 130 61 218 192 175 171 180 186 190 194 203 208 214 220 218 217 214 216 215 214 216 216 222 219 215 213 219 214 211 215 219 229 234 237 232 225 237 239 232 228 226 231 226
3 59 6 272 84 156 50 226 256 185 171 179 188 192 200 202 201 211 219 222 224 224 219 222 222 223 227 226 227 227 222 226 227 225 222 224 228 234 243 258 257 239 231 247 247 247 247 255 236
4 223 251 314 105 99 76 269 177 182 194 190 191 199 203 207 211 210 216 226 229 229 229 224 225 230 235 236 233 235 232 233 236 228 228 232 236 239 246 261 253 234 237 237 243 250 239 241 246
189 219 292 258 269 122 182 231 193 189 198 202 200 203 207 210 212 211 211 221 230 230 235 234 233 236 238 240 236 234 235 236 238 240 235 235 243 240 240 248 244 235 239 250 239 245 248 245 259
141 215 265 277 255 346 277 236 205 198 210 212 209 209 214 215 216 216 213 215 225 230 234 234 235 239 235 233 234 232 236 234 236 241 247 243 243 240 240 246 248 243 258 245 243 252 255 254 252
161 261 273 286 301 109 295 304 285 189 207 206 207 214 219 226 223 219 217 217 222 231 233 235 237 238 239 235 237 238 243 245 248 248 248 246 240 237 239 245 249 252 255 253 248 247 259 256 254
219 202 245 218 349 295 341 314 309 325 233 224 230 227 228 230 228 226 221 222 226 229 233 237 238 239 238 238 235 236 237 238 240 240 243 240 240 239 243 247 251 246 255 249 249 257 265 258 257
259 203 241 244 92 235 59 272 292 234 230 242 244 239 236 239 241 240 234 230 230 239 236 238 242 240 239 237 237 237 239 240 238 242 242 241 241 240 240 242 247 253 266 263 265 259 252 254 267
235 166 219 197 158 120 351 71 267 346 242 239 248 246 243 238 244 246 247 243 242 242 242 243 245 246 244 240 241 242 242 244 248 245 243 240 239 241 246 246 240 238 280 269 275 273 257 243 246
57 114 46 67 101 56 257 125 360 360 325 288 262 252 250 274 288 279 263 263 258 256 252 251 247 247 245 244 243 243 244 247 250 244 240 238 238 241 243 247 249 247 275 266 266 279 261 253 254
99 71 9 11 16 202 163 86 145 339 360 5 23 44 47 245 267 259 254 257 264 259 257 258 258 252 250 246 245 242 244 251 257 253 245 239 240 237 249 255 254 270 253 267 272 277 278 259 248
165 138 144 172 184 255 313 74 5 18 26 47 50 70 76 76 63 43 360 294 275 266 254 252 258 263 260 256 253 250 247 247 257 283 267 244 246 248 260 264 265 252 240 262 277 274 269 263 256
183 92 168 103 19 63 274 9 100 31 24 33 35 57 53 49 65 66 64 62 59 50 260 260 263 273 273 253 246 241 243 239 244 316 355 250 244 265 278 258 231 227 253 289 276 256 263 258 213
139 155 79 18 128 202 331 84 322 348 338 325 29 33 44 39 50 58 55 56 51 38 24 350 325 305 243 230 239 241 220 186 355 356 355 357 286 269 235 251 261 270 272 255 257 228 216 172 159
69 97 54 114 123 157 148 275 343 312 309 305 331 21 41 56 69 73 74 69 52 41 35 41 55 94 174 199 198 195 162 323 322 315 298 284 285 247 243 258 259 121 128 148 138 137 129 127 126
108 136 124 123 217 92 126 246 308 293 312 338 26 42 52 58 70 70 62 53 49 46 43 48 64 78 85 115 164 296 321 250 258 264 260 202 184 229 230 136 101 101 106 111 102 111 111 112 122